Вернуться в каталог

STARLINK-36243

АктивенСвязьVLEO
NORAD 67077·PAYLOAD·🇺🇸 United States

Запущен Dec 14, 2025 с Vandenberg Space Force Base

Loading…

Ближайшие Пролёты (ближайшие 24 часа)

TLE

СвежийSource: CelesTrak SupGP

Эпоха: Sep 15, 2026, 02:56 UTC

1 67077C 25298C   26258.12270833 -.00049526  00000+0 -41494-2 0  2581
2 67077  69.9994 257.0044 0004068 265.1013 259.3011 14.98362775    17

Отслеживайте STARLINK-36243 в реальном времени с AllMySat

Download on the App Store